sat.trackr.live / text

‹ back to catalog

UNKNOWN

NORAD 89101

UNKNOWN UNKNOWN UNKNOWN

§ Identity

Operator
Country
Launch date
Launch site
Launch vehicle
Mass (kg)
RCS (m²)

External: N2YO · Heavens-Above

§ Orbital elements

Epoch: 2026-09-10T23:52:43.220352Z

Period
110.42 min
Inclination
100.4799°
Eccentricity
0.0146065
Mean motion
13.04062739 rev/d
Perigee alt
1,134.8 km
Apogee alt
1,357.6 km
Semi-major
7,624.4 km
B*
-9.2434e-4
RAAN
187.3414°
Arg perigee
221.7880°
Mean anomaly
137.1997°
Rev number
59,033

§ Raw data

UNKNOWN1 89101U          26253.99494468 -.00000354  00000+0 -92434-3 0  99982 89101 100.4799 187.3414 0146065 221.7880 137.1997 13.04062739590331

JSON: /api/v1/satellites/89101 · /tle

For live sub-satellite position, see the globe view (requires WebGL).

§ Visibility from observer

Set your observer location to see the next 7 days of passes ≥ 10°. The values pass through the URL so the page stays shareable.

No JS? Fill the form by hand. The geolocation button needs JavaScript.